Aérodrome :
LOGIN :

S'inscrire | Disclaimer

   EN    FR    IT 

 










Légende :    VFR   VFR Marginal   IFR   IFR Intensif   IFR Très Intensif
Visi : 
Plafond : 
>= 8 km
>= 3000ft
5 à 8 km
1000 à 3000 ft
1500m à 5 km
500 à 1000 ft
800 à 1500m
200 à 500 ft
< 800m
< 200 ft
Symboles :   Orages  Brouillard  Fortes neiges  Fortes précipitations  Vent > 20 kt
SIGMETs :   Divers  Orages  Givrage  Turbulence  Onde Orograph.  Cendres Volcan.







- Altitude de l'aérodrome : 124 ft
- Code IATA : NHT
- Voir les cartes d'approche


EGWU - RAF Northolt

DERNIER METAR :
  • 160650Z 12005KT 3000 -DZ BKN002 BKN003 11/11 Q1024 AMB BECMG 4000 BKN005 YLO1

METARs EXPIRÉS :
  • 160550Z AUTO 13004KT 2900 // BKN002/// OVC010/// 11/11 Q1023
  • 160450Z AUTO 14005KT 1800 // BKN002/// BKN010/// 11/11 Q1023

TAF AMD TAF EGWU
Valide du 16 à 07h jusqu'au 17 à 00h UTC


160704Z 1607/1624 12005KT 3000 BR BKN002
BECMG 1607/1609 4000 BKN005
BECMG 1609/1612 7000 HZ BKN008
PROB40 1612/1617 9999 NSW
BECMG 1616/1619 BKN006
PROB30 1618/1624 4000 BR
Pas de NOTAMs connus pour ce terrain.



MET'MAP, la Météo Aéronautique d'un coup d'oeil ! - Copyright ORBIFLY Décembre 2007 - Disclaimer

ORBIFLY MET'MAP TEAM :

Programmation & Développement : Alexandra Zaïnal
Conception & Développement : Baudouin d'Aumeries
Co-Programmation & Développement : Marc-Olivier Méhu
Soutien technique & logistique : Manuel Goepfert

Contact : metmap@orbifly.com




SOURCES & CREDITS :

   NOAA